Content
SEND FEEDBACK

Daily
Averages
Monthly
Summary
United Kingdom

STORNOWAY, SCOTLAND


Home > Europe > United Kingdom > Scotland
Elevation: 43 feet     Latitude: 58 13N     Longitude: 006 19W

WEATHER
 
SELECT A DAY
Number of Records: 246,668;   Date Range: 7/1/96 - 12/16/14
 
SHARE

PRINT THIS DATA

[ ← Previous Day ]
WEATHER ALMANAC - JANUARY 31, 2013
[ Next Day → ]
[ °C ]   °F
Weather ElementAverageHighLow
Temperature40.7 °F44.6 °F (5:20 pm)35.6 °F (2:50 am)
Dewpoint35.4 °F39.2 °F (5:20 pm)30.2 °F (3:20 am)
Humidity80.5 %87 % (1:50 am)65 % (11:50 am)
Barometer29.30 in29.44 in (12:50 am)29.24 in (6:20 am)
Wind Speed10.5 mph25.3 mph (11:50 pm)
Weather ElementAverage
Visibility6.7 mi
Wind DirectionESE (97.8 °)

Weather ElementTotal
Precipitation---
Heating Degree Days24.9 (Base 65)
Averaged from 55 records on January 31, 2013
WEATHER CONDITIONS BREAKOUT
WIND DIRECTION BREAKOUT
WEATHER BY HOUR - JANUARY 31, 2013
[ °C ]   °F
Local TimeTemperatureDewpointHumidityBarometerVisibilityWind DirectionWind SpeedGust SpeedPrecipitationEventsConditions
12:50 AM37.4 °F32.0 °F81 %29.44 in6.2 miSSW (210°)6.9 mph
1:20 AM37.4 °F32.0 °F81 %29.44 in6.2 miSSW (200°)6.9 mphMostly Cloudy
1:50 AM37.4 °F33.8 °F87 %29.44 in6.2 miSSW (200°)9.2 mphScattered Clouds
2:20 AM39.2 °F33.8 °F81 %29.42 in6.2 miSSW (200°)6.9 mphOvercast
2:50 AM39.0 °F34.0 °F76 %29.39 in11.0 miSSW (200°)6.9 mphPartly Cloudy
2:50 AM35.6 °F32.0 °F87 %29.39 in6.2 miSSW (200°)4.6 mphScattered Clouds
3:20 AM35.6 °F30.2 °F81 %29.36 in6.2 miSSW (210°)2.3 mph
3:50 AM37.4 °F33.8 °F87 %29.33 in3.7 miCalm
4:20 AM37.4 °F33.8 °F87 %29.30 in5.0 miCalm
4:50 AM39.2 °F33.8 °F81 %29.30 in6.2 miSSE (150°)10.4 mph
5:20 AM39.2 °F35.6 °F87 %29.27 in5.0 miESE (110°)8.1 mphPartly Cloudy
5:50 AM39.0 °F35.0 °F78 %29.26 in8.0 miEast (100°)8.1 mphLight Haze
5:50 AM37.4 °F33.8 °F87 %29.27 in6.2 miEast (100°)4.6 mphScattered Clouds
6:20 AM39.2 °F33.8 °F81 %29.24 in6.2 miEast (90°)3.5 mphScattered Clouds
6:50 AM41.0 °F35.6 °F81 %29.24 in6.2 miEast (90°)4.6 mphPartly Cloudy
7:20 AM39.2 °F33.8 °F81 %29.24 in6.2 miEast (80°)6.9 mphPartly Cloudy
7:50 AM42.8 °F37.4 °F81 %29.24 in6.2 miEast (90°)6.9 mphPartly Cloudy
8:20 AM41.0 °F35.6 °F81 %29.24 in6.2 miEast (90°)8.1 mphPartly Cloudy
8:50 AM41.0 °F36.0 °F74 %29.24 in6.0 miENE (70°)12.7 mphLight Haze
8:50 AM41.0 °F35.6 °F81 %29.24 in6.2 miEast (80°)5.8 mphPartly Cloudy
9:20 AM41.0 °F35.6 °F81 %29.24 in6.2 miEast (100°)5.8 mphPartly Cloudy
9:50 AM41.0 °F33.8 °F76 %29.27 in6.2 miEast (90°)6.9 mphPartly Cloudy
10:20 AM42.8 °F35.6 °F76 %29.27 in6.2 miEast (90°)5.8 mphPartly Cloudy
10:50 AM42.8 °F37.4 °F81 %29.27 inESE (120°)6.9 mphClear
11:20 AM41.0 °F35.6 °F81 %29.27 inESE (110°)10.4 mphClear
11:50 AM43.0 °F35.0 °F65 %29.27 in7.0 miEast (100°)15.0 mph
11:50 AM42.8 °F35.6 °F76 %29.27 inESE (110°)11.5 mphClear
12:20 PM42.8 °F37.4 °F81 %29.27 inESE (120°)11.5 mphClear
12:50 PM42.8 °F37.4 °F81 %29.30 in6.2 miESE (120°)11.5 mphPartly Cloudy
1:20 PM42.8 °F37.4 °F81 %29.30 in6.2 miESE (120°)8.1 mphPartly Cloudy
1:50 PM42.8 °F35.6 °F76 %29.30 in6.2 miSE (130°)9.2 mphPartly Cloudy
2:20 PM42.8 °F35.6 °F76 %29.30 in6.2 miESE (120°)6.9 mphPartly Cloudy
2:50 PM42.0 °F36.0 °F73 %29.29 in25.0 miESE (110°)10.4 mphScattered Clouds
2:50 PM42.8 °F35.6 °F76 %29.30 in6.2 miESE (120°)8.1 mphPartly Cloudy
3:20 PM42.8 °F37.4 °F81 %29.30 in6.2 miEast (100°)6.9 mphPartly Cloudy
3:50 PM42.8 °F35.6 °F76 %29.30 in6.2 miEast (90°)5.8 mphPartly Cloudy
4:20 PM42.8 °F37.4 °F81 %29.30 in6.2 miEast (80°)9.2 mphPartly Cloudy
4:50 PM41.0 °F35.6 °F81 %29.30 in6.2 miENE (70°)11.5 mphPartly Cloudy
5:20 PM44.6 °F39.2 °F81 %29.30 in6.2 miENE (70°)11.5 mphPartly Cloudy
5:50 PM42.0 °F36.0 °F72 %29.29 in19.0 miENE (70°)18.4 mphPartly Cloudy
5:50 PM42.8 °F35.6 °F76 %29.30 in6.2 miENE (70°)12.7 mphPartly Cloudy
6:20 PM41.0 °F35.6 °F81 %29.30 in6.2 miENE (70°)11.5 mphPartly Cloudy
6:50 PM41.0 °F35.6 °F81 %29.30 in6.2 miENE (60°)12.7 mphPartly Cloudy
7:20 PM42.8 °F39.2 °F87 %29.30 in6.2 miENE (70°)10.4 mphMostly Cloudy
7:50 PM39.2 °F33.8 °F81 %29.30 in6.2 miENE (60°)13.8 mphRainLight Rain
8:20 PM41.0 °F37.4 °F87 %29.30 in5.6 miENE (60°)15.0 mphMostly Cloudy
8:50 PM41.0 °F37.0 °F82 %29.30 in8.0 miNE (50°)19.6 mphMostly Cloudy
8:50 PM41.0 °F35.6 °F81 %29.30 in5.0 miNE (50°)17.3 mphLight Drizzle
9:20 PM41.0 °F35.6 °F81 %29.30 in5.0 miENE (60°)18.4 mphLight Drizzle
9:50 PM41.0 °F35.6 °F81 %29.30 in5.6 miNE (50°)19.6 mphLight Drizzle
10:20 PM41.0 °F35.6 °F81 %29.30 in5.6 miNE (50°)20.7 mphRainLight Rain
10:50 PM41.0 °F35.6 °F81 %29.30 in5.0 miENE (60°)20.7 mphLight Drizzle
11:20 PM39.2 °F35.6 °F87 %29.30 in4.3 miENE (60°)21.9 mphLight Drizzle
11:50 PM40.0 °F37.0 °F83 %29.31 in7.0 miNE (50°)25.3 mphRainLight Rain
11:50 PM39.2 °F35.6 °F87 %29.30 in4.3 miNE (50°)24.2 mphRainLight Rain
Hourly data recorded from EGPO, located miles away from Stornoway, Scotland







STORIES FROM OUR PARTNERS